Content
SEND FEEDBACK

Daily
Averages
Monthly
Summary
United Kingdom

COUNTY OAK, ENGLAND


Home > Europe > United Kingdom > England
Elevation: 203 feet     Latitude: 51 01N     Longitude: 000 10W

WEATHER
 
SELECT A DAY
Number of Records: 297,098;   Date Range: 7/1/96 - 10/19/14
 
SHARE

PRINT THIS DATA

[ ← Previous Day ]
WEATHER ALMANAC - JUNE 28, 2013
[ Next Day → ]
[ °C ]   °F
We're sorry. There is no daily almanac available for County Oak, England on June 28, 2013.
WEATHER BY HOUR - JUNE 28, 2013
[ °C ]   °F
Local TimeTemperatureDewpointHumidityBarometerVisibilityWind DirectionWind SpeedGust SpeedPrecipitationEventsConditions
12:50 AM53.6 °F51.8 °F94 %30.18 in6.2 miWest (280°)4.6 mphMostly Cloudy
1:20 AM53.6 °F51.8 °F94 %30.18 in6.2 miWest (280°)5.8 mphMostly Cloudy
1:50 AM55.4 °F51.8 °F88 %30.15 in6.2 miWNW (290°)6.9 mphMostly Cloudy
2:20 AM55.4 °F51.8 °F88 %30.15 in6.2 miWNW (300°)8.1 mphMostly Cloudy
2:50 AM55.4 °F51.8 °F88 %30.15 in6.2 miWNW (290°)5.8 mphMostly Cloudy
3:20 AM55.4 °F53.6 °F94 %30.15 in6.2 miWest (280°)5.8 mphOvercast
3:50 AM55.4 °F53.6 °F94 %30.12 in1.7 miWest (280°)4.6 mphHaze
4:20 AM55.4 °F53.6 °F94 %30.12 in1.9 miWest (280°)4.6 mphLight Drizzle
4:50 AM55.4 °F55.4 °F100 %30.12 in1.3 miWNW (290°)5.8 mphLight Drizzle
5:20 AM55.4 °F55.4 °F100 %30.12 inWest (280°)4.6 mphMostly Cloudy
5:50 AM55.4 °F55.4 °F100 %30.12 inWest (280°)5.8 mphOvercast
6:20 AM57.2 °F55.4 °F94 %30.12 inWNW (290°)6.9 mphMostly Cloudy
6:50 AM57.2 °F55.4 °F94 %30.12 in3.1 miWNW (300°)6.9 mphHaze
7:20 AM57.2 °F55.4 °F94 %30.12 in1.9 miNW (320°)8.1 mphDrizzle
7:50 AM57.2 °F55.4 °F94 %30.12 in4.3 miNW (320°)6.9 mphLight Drizzle
8:20 AM59.0 °F57.2 °F94 %30.12 in6.2 miNW (320°)6.9 mphMostly Cloudy
8:50 AM59.0 °F57.2 °F94 %30.12 in6.2 miNW (320°)6.9 mphMostly Cloudy
9:20 AM60.8 °F55.4 °F82 %30.15 in6.2 miNW (310°)10.4 mphMostly Cloudy
9:50 AM60.8 °F57.2 °F88 %30.15 in6.2 miWNW (300°)10.4 mphRainLight Rain
10:20 AM60.8 °F57.2 °F88 %30.15 in6.2 miWNW (300°)8.1 mphRainLight Rain
10:50 AM60.8 °F57.2 °F88 %30.15 in6.2 miWNW (300°)6.9 mphRainLight Rain
11:20 AM60.8 °F59.0 °F94 %30.15 in6.2 miWNW (290°)6.9 mphRainLight Rain
11:50 AM62.6 °F59.0 °F88 %30.15 in6.2 miWNW (300°)8.1 mphRainLight Rain
12:20 PM62.6 °F59.0 °F88 %30.15 in6.2 miWest (280°)9.2 mphRainLight Rain
12:50 PM62.6 °F59.0 °F88 %30.12 in6.2 miWest (280°)6.9 mphRainLight Rain
1:20 PM62.6 °F59.0 °F88 %30.12 in6.2 miWNW (290°)8.1 mphMostly Cloudy
1:50 PM64.4 °F59.0 °F83 %30.12 in6.2 miWNW (290°)9.2 mphMostly Cloudy
2:20 PM66.2 °F60.8 °F83 %30.12 in6.2 miWest (280°)6.9 mphMostly Cloudy
2:50 PM66.2 °F60.8 °F83 %30.12 in6.2 miWest (260°)10.4 mphMostly Cloudy
3:20 PM66.2 °F60.8 °F83 %30.12 in6.2 miWSW (250°)8.1 mphPartly Cloudy
3:50 PM68.0 °F60.8 °F78 %30.09 in6.2 miSW (220°)6.9 mphScattered Clouds
4:20 PM68.0 °F60.8 °F78 %30.09 in6.2 miSW (230°)8.1 mphScattered Clouds
4:50 PM68.0 °F60.8 °F78 %30.06 in6.2 miSW (220°)6.9 mphScattered Clouds
5:20 PM68.0 °F60.8 °F78 %30.06 in6.2 miSW (220°)9.2 mphScattered Clouds
5:50 PM68.0 °F62.6 °F83 %30.06 in6.2 miSW (220°)6.9 mphScattered Clouds
6:20 PM68.0 °F60.8 °F78 %30.06 in6.2 miWest (270°)12.7 mphScattered Clouds
6:50 PM68.0 °F60.8 °F78 %30.06 in6.2 miWest (260°)13.8 mphScattered Clouds
7:20 PM66.2 °F59.0 °F78 %30.06 in6.2 miWest (270°)13.8 mphScattered Clouds
7:50 PM66.2 °F57.2 °F73 %30.06 in6.2 miWest (260°)12.7 mphPartly Cloudy
8:20 PM64.4 °F57.2 °F77 %30.06 inWest (270°)15.0 mphClear
8:50 PM64.4 °F57.2 °F77 %30.06 in6.2 miWest (270°)10.4 mphPartly Cloudy
9:20 PM62.6 °F57.2 °F82 %30.06 in6.2 miWest (270°)11.5 mphPartly Cloudy
9:50 PM62.6 °F57.2 °F82 %30.09 in6.2 miWNW (290°)11.5 mphScattered Clouds
10:20 PM62.6 °F57.2 °F82 %30.09 in6.2 miWest (280°)10.4 mphMostly Cloudy
10:50 PM62.6 °F57.2 °F82 %30.09 in6.2 miWest (270°)11.5 mphMostly Cloudy
11:20 PM62.6 °F57.2 °F82 %30.09 in6.2 miWest (260°)11.5 mphMostly Cloudy
11:50 PM62.6 °F57.2 °F82 %30.09 in6.2 miWNW (290°)9.2 mphMostly Cloudy
Hourly data recorded from EGKK, located miles away from County Oak, England







STORIES FROM OUR PARTNERS